Location: Unspecified
(0.0000°N, 0.0000°E)
Time: 16:25:15
(UTC+00:00)

Vanguard 2 Rocket - Pass Details

Date: 26 November 2019
Orbit: 554 x 3326 km, 32.9° (Epoch: 13 December)

Event Time Altitude Azimuth Distance (km) Brightness Sun altitude
Rises 20:48:00 0° 266° (W) 4,963 11.4 -41.5°
Reaches altitude 10° 20:53:42 10° 288° (WNW) 3,317 10.1 -42.7°
Enters shadow 20:56:15 14° 305° (NW) 2,759 9.5 -43.3°
Maximum altitude 20:57:36 14° 318° (NW) 2,565 - -43.6°
Drops below altitude 10° 21:00:45 10° 349° (N) 2,529 - -44.2°
Sets 21:04:06 0° 16° (NNE) 3,131 - -45.0°
